Weather History for Richmond Hanover County, VA

Change the Weather History Date:

Thursday, August 25, 2011

  Actual Average Record
Temperature  
Mean Temperature 80 °F -  
Max Temperature 93 °F 84 °F 100 °F (1998)
Min Temperature 68 °F 62 °F 49 °F (1978)
Cooling Degree Days 14    
Growing Degree Days 30 (Base 50)    
Moisture  
Dew Point 68 °F    
Average Humidity 77    
Maximum Humidity 96    
Minimum Humidity 45    
Precipitation  
Precipitation 0.96 in - - ()
Sea Level Pressure  
Sea Level Pressure 29.97 in    
Wind  
Wind Speed 10 mph (SSW)    
Max Wind Speed 16 mph    
Max Gust Speed 26 mph    
Visibility 8 miles    
Events Rain , Thunderstorm    
Averages and records for this station are not official NWS values.
T = Trace of Precipitation, MM = Missing Value Source: NWS Daily Summary

Daily Weather History Graph

Daily Weather History Graph

Search for Another Location

Airport:

Trip Planner

Search our weather history database for the weather conditions in past years. The results will help you decide how hot, cold, wet, or windy it might be!

Date:

Astronomy

Aug. 25, 2011 Rise Set
Actual Time 6:33 AM EDT 7:49 PM EDT
Civil Twilight 6:06 AM EDT 8:16 PM EDT
Nautical Twilight 5:33 AM EDT 8:49 PM EDT
Astronomical Twilight 4:59 AM EDT 9:23 PM EDT
Moon 2:34 AM EDT (8/25) 5:19 PM EDT (8/25)
Length of Visible Light 14h 10m
Length of Day
13h 15m
Waning Crescent, 15% of the Moon is Illuminated
Aug 25
Waning Crescent
Aug 28
New
Sep 4
First Quarter
Sep 12
Full
Sep 20
Last Quarter

Hourly Weather History & Observations

Time (EDT) Temp. Heat Index Dew Point Humidity Pressure Visibility Wind Dir Wind Speed Gust Speed Precip Events Conditions
12:54 AM 75.9 °F - 66.0 °F 71% 29.96 in 10.0 mi South 12.7 mph 19.6 mph N/A   Clear
1:54 AM 75.0 °F - 66.9 °F 76% 29.94 in 10.0 mi South 11.5 mph - N/A   Clear
2:54 AM 75.0 °F - 68.0 °F 79% 29.96 in 10.0 mi SSW 9.2 mph - N/A   Clear
3:54 AM 75.0 °F - 69.1 °F 82% 29.96 in 10.0 mi SSW 6.9 mph - N/A   Clear
4:54 AM 75.0 °F - 69.1 °F 82% 29.94 in 10.0 mi South 10.4 mph - N/A   Clear
5:54 AM 73.9 °F - 69.1 °F 85% 29.94 in 10.0 mi SSW 9.2 mph - N/A   Clear
6:54 AM 73.9 °F - 70.0 °F 87% 29.95 in 10.0 mi South 9.2 mph - N/A   Clear
8:54 AM 78.1 °F - 70.0 °F 76% 29.96 in 10.0 mi SSW 11.5 mph 19.6 mph N/A   Clear
9:54 AM 82.0 °F 85.9 °F 70.0 °F 67% 29.96 in 10.0 mi SSW 13.8 mph 18.4 mph N/A   Clear
10:54 AM 84.9 °F 88.2 °F 68.0 °F 57% 29.96 in 10.0 mi SSW 15.0 mph 21.9 mph N/A   Clear
11:54 AM 88.0 °F 90.7 °F 66.9 °F 49% 29.95 in 10.0 mi WSW 13.8 mph 21.9 mph N/A   Clear
12:54 PM 90.0 °F 93.6 °F 68.0 °F 48% 29.94 in 10.0 mi SSW 13.8 mph - N/A   Clear
1:54 PM 91.9 °F 95.9 °F 68.0 °F 45% 29.92 in 10.0 mi South 10.4 mph 20.7 mph N/A   Clear
2:54 PM 91.0 °F 95.2 °F 68.0 °F 47% 29.91 in 10.0 mi South 9.2 mph - N/A   Scattered Clouds
4:54 PM 89.1 °F 92.1 °F 66.9 °F 48% 29.87 in 10.0 mi South 6.9 mph 16.1 mph N/A   Overcast
5:19 PM 87.8 °F 90.4 °F 66.2 °F 49% 29.88 in 10.0 mi SSE 9.2 mph - N/A Thunderstorm Mostly Cloudy
5:54 PM 79.0 °F - 66.0 °F 64% 29.96 in 9.0 mi NNW 10.4 mph 23.0 mph N/A Thunderstorm Mostly Cloudy
6:20 PM 71.6 °F - 68.0 °F 88% 30.04 in 1.8 mi West 16.1 mph 23.0 mph 0.14 in Rain , Thunderstorm Heavy Thunderstorms and Rain
6:25 PM 69.8 °F - 68.0 °F 94% 30.04 in 0.8 mi WSW 11.5 mph 23.0 mph 0.35 in Rain , Thunderstorm Heavy Thunderstorms and Rain
6:31 PM 69.8 °F - 66.2 °F 88% 30.03 in 0.8 mi SW 11.5 mph 26.5 mph 0.57 in Rain , Thunderstorm Heavy Thunderstorms and Rain
6:38 PM 69.8 °F - 68.0 °F 94% 30.01 in 1.5 mi South 8.1 mph - 0.65 in Rain , Thunderstorm Heavy Thunderstorms and Rain
6:43 PM 69.8 °F - 66.2 °F 88% 30.00 in 3.0 mi SE 5.8 mph - 0.67 in Rain , Thunderstorm Thunderstorms and Rain
6:54 PM 69.1 °F - 66.9 °F 93% 29.99 in 7.0 mi SE 5.8 mph - 0.70 in Rain , Thunderstorm Light Rain
7:54 PM 68.0 °F - 66.9 °F 96% 30.01 in 5.0 mi Calm Calm - 0.14 in Rain Rain
8:16 PM 68.0 °F - 66.2 °F 94% 30.02 in 7.0 mi SSE 3.5 mph - 0.04 in Rain , Thunderstorm Light Rain
8:31 PM 68.0 °F - 66.2 °F 94% 30.00 in 4.0 mi Variable 3.5 mph - 0.10 in Rain Light Rain
8:54 PM 69.1 °F - 66.9 °F 93% 29.98 in 10.0 mi SSE 4.6 mph - 0.11 in Rain Light Rain
9:54 PM 69.1 °F - 66.9 °F 93% 29.95 in 10.0 mi Calm Calm - 0.01 in   Mostly Cloudy
10:54 PM 70.0 °F - 68.0 °F 93% 29.96 in 10.0 mi Calm Calm - N/A   Overcast
11:54 PM 69.1 °F - 66.9 °F 93% 29.99 in 9.0 mi Calm Calm - N/A   Mostly Cloudy